Change the Weather History Date:

Tuesday, January 28, 2014

  Actual Average Record
Temperature  
Mean Temperature -6 °F -  
Max Temperature 1 °F 24 °F 42 °F (1989)
Min Temperature -13 °F 9 °F -20 °F (1966)
Degree Days  
Heating Degree Days 71    
Moisture  
Dew Point -16 °F    
Average Humidity 63    
Maximum Humidity 71    
Minimum Humidity 54    
Precipitation  
Precipitation 0.00 in - - ()
Sea Level Pressure  
Sea Level Pressure 30.27 in    
Wind  
Wind Speed 16 mph (West)    
Max Wind Speed 23 mph    
Max Gust Speed 32 mph    
Visibility 9 miles    
Events Snow    
Averages and records for this station are not official NWS values.
T = Trace of Precipitation, MM = Missing Value Source: NWS Daily Summary

Daily Weather History Graph

Daily Weather History Graph

Search for Another Location

Airport or City:

Trip Planner

Search our weather history database for the weather conditions in past years. The results will help you decide how hot, cold, wet, or windy it might be!

Date:

Astronomy

Jan. 28, 2014 Rise Set
Actual Time 7:12 AM CST 4:55 PM CST
Civil Twilight 6:41 AM CST 5:26 PM CST
Nautical Twilight 6:06 AM CST 6:01 PM CST
Astronomical Twilight 5:32 AM CST 6:35 PM CST
Moon 4:55 AM CST (1/28) 2:43 PM CST (1/28)
Length of Visible Light 10h 44m
Length of Day
9h 42m
Waning Crescent, 7% of the Moon is Illuminated
Jan 28
Waning Crescent
Jan 30
New
Feb 6
First Quarter
Feb 14
Full
Feb 22
Last Quarter

Hourly Weather History & Observations

Time (CST) Temp. Windchill Dew Point Humidity Pressure Visibility Wind Dir Wind Speed Gust Speed Precip Events Conditions
12:56 AM -11.0 °F -34.2 °F -20.0 °F 64% 30.36 in 10.0 mi West 16.1 mph 24.2 mph N/A   Clear
1:56 AM -11.9 °F -33.0 °F -20.0 °F 67% 30.36 in 10.0 mi West 12.7 mph - N/A   Clear
2:56 AM -11.9 °F -33.0 °F -20.0 °F 67% 30.36 in 10.0 mi West 12.7 mph - N/A   Clear
3:56 AM -11.9 °F -36.1 °F -20.0 °F 67% 30.34 in 10.0 mi West 17.3 mph 24.2 mph N/A   Clear
4:56 AM -13.0 °F -37.5 °F -20.0 °F 71% 30.34 in 10.0 mi West 17.3 mph 21.9 mph N/A   Clear
5:56 AM -13.0 °F -34.3 °F -20.0 °F 71% 30.35 in 10.0 mi West 12.7 mph 18.4 mph N/A   Clear
6:56 AM -13.0 °F -36.8 °F -20.0 °F 71% 30.35 in 10.0 mi West 16.1 mph 25.3 mph N/A   Clear
7:56 AM -11.9 °F -36.1 °F -20.0 °F 67% 30.36 in 10.0 mi West 17.3 mph 23.0 mph N/A   Clear
8:56 AM -11.0 °F -34.9 °F -20.0 °F 64% 30.36 in 10.0 mi West 17.3 mph 27.6 mph N/A   Clear
9:56 AM -9.0 °F -34.2 °F -18.0 °F 65% 30.35 in 10.0 mi West 20.7 mph 27.6 mph N/A   Clear
10:14 AM -7.6 °F -32.3 °F -18.4 °F 59% 30.26 in 1.0 mi West 20.7 mph 29.9 mph 0.00 in Snow Light Snow
10:16 AM -7.6 °F -31.7 °F -16.6 °F 65% 30.25 in 0.2 mi West 19.6 mph 29.9 mph 0.00 in Snow Heavy Snow
10:26 AM -7.6 °F -30.5 °F -16.6 °F 65% 30.25 in 0.8 mi West 17.3 mph 27.6 mph 0.00 in Snow Light Snow
10:31 AM -7.6 °F -29.1 °F -16.6 °F 65% 30.25 in 2.5 mi West 15.0 mph 25.3 mph 0.00 in Snow Light Snow
10:44 AM -5.8 °F -31.0 °F -16.6 °F 60% 30.24 in 8.0 mi West 23.0 mph 29.9 mph 0.00 in   Scattered Clouds
10:56 AM -6.0 °F -26.3 °F -16.1 °F 62% 30.34 in 10.0 mi West 13.8 mph 23.0 mph 0.00 in   Partly Cloudy
11:56 AM -4.0 °F -24.5 °F -15.0 °F 59% 30.31 in 10.0 mi West 15.0 mph 23.0 mph N/A   Clear
12:56 PM -2.0 °F -22.6 °F -14.1 °F 57% 30.27 in 10.0 mi West 16.1 mph - N/A   Clear
1:56 PM -0.0 °F -20.7 °F -13.0 °F 54% 30.25 in 10.0 mi West 17.3 mph 24.2 mph N/A   Clear
2:56 PM 1.0 °F -18.7 °F -11.9 °F 55% 30.24 in 10.0 mi West 16.1 mph 26.5 mph N/A   Clear
3:56 PM 1.0 °F -18.7 °F -11.0 °F 57% 30.22 in 10.0 mi WSW 16.1 mph 26.5 mph N/A   Clear
4:56 PM -0.9 °F -19.9 °F -11.0 °F 62% 30.20 in 10.0 mi WSW 13.8 mph - N/A   Clear
5:56 PM -0.9 °F -19.1 °F -11.0 °F 62% 30.19 in 10.0 mi WSW 12.7 mph 18.4 mph N/A   Clear
6:56 PM -0.0 °F -20.1 °F -11.0 °F 60% 30.18 in 10.0 mi WSW 16.1 mph - N/A   Clear
7:56 PM -0.0 °F -20.1 °F -11.0 °F 60% 30.17 in 10.0 mi West 16.1 mph - N/A   Clear
8:56 PM -0.0 °F -20.7 °F -11.0 °F 60% 30.14 in 10.0 mi West 17.3 mph 32.2 mph N/A   Overcast
9:56 PM -0.9 °F -22.4 °F -11.0 °F 62% 30.15 in 10.0 mi West 18.4 mph 25.3 mph N/A   Clear
10:56 PM -2.0 °F -23.9 °F -11.0 °F 66% 30.14 in 10.0 mi West 18.4 mph 23.0 mph N/A   Clear
11:56 PM -2.0 °F -23.3 °F -11.0 °F 66% 30.14 in 10.0 mi West 17.3 mph 24.2 mph N/A   Overcast